Location: Town of Saratoga
(43.0654°N, 73.6496°W)
Time: 20:15:10
(UTC+00:00)

ISS - Visible Passes

Search period start: 30 November 2023 00:00
Search period end: 10 December 2023 00:00
Orbit: 416 x 417 km, 51.6° (Epoch: 30 November)

Date Brightness Start Highest point End Pass type
(mag) Time Alt. Az. Time Alt. Az. Time Alt. Az.
30 Nov -2.8 22:42:53 10° NW 22:45:54 30° NNE 22:46:26 28° NE visible
01 Dec -2.4 21:54:31 10° NW 21:57:20 24° NNE 22:00:09 10° ENE visible
01 Dec -2.4 23:31:03 10° WNW 23:33:12 37° WNW 23:33:12 37° WNW visible
02 Dec -3.7 22:42:37 10° NW 22:45:57 58° NNE 22:47:09 34° E visible
03 Dec -0.2 00:19:56 10° W 00:20:06 11° W 00:20:06 11° W visible
03 Dec -3.2 21:54:10 10° NW 21:57:22 39° NNE 22:00:32 10° E visible
03 Dec -2.2 23:31:00 10° WNW 23:34:03 32° SW 23:34:14 32° SW visible
04 Dec -3.1 22:42:17 10° WNW 22:45:35 56° SW 22:48:39 11° SE visible
05 Dec -3.8 21:53:38 10° WNW 21:57:00 87° NNE 22:00:21 10° ESE visible
05 Dec -0.6 23:31:49 10° WSW 23:33:17 12° SW 23:34:45 10° SSW visible
06 Dec -1.1 22:42:14 10° W 22:44:49 21° SW 22:47:25 10° S visible
07 Dec -1.9 21:53:10 10° WNW 21:56:15 35° SW 21:59:20 10° SSE visible
09 Dec -0.3 21:53:20 10° W 21:55:06 14° SW 21:56:51 10° SSW visible
